Weather Roundup
Issued by NWS Chicago, IL

Home | Current Version | Previous Version | Graphics & Text | Print | Product List | Glossary On
Versions: 1 2 3 4 5 6 7 8 9 10 11 12 13 14 15 16 17 18 19 20 21 22 23 24 25 26 27 28 29 30 31 32 33 34 35 36 37 38 39 40 41 42 43 44 45 46 47 48 49 50
000
NZUS59 KLOT 241910
HRRLOT

CHICAGO AREA WEATHER ROUNDUP
NATIONAL WEATHER SERVICE CHICAGO/ROMEOVILLE IL
200 PM CDT THU APR 24 2014

NOTE: "FAIR" INDICATES FEW OR NO CLOUDS BELOW 12,000 FEET WITH NO
SIGNIFICANT WEATHER AND/OR OBSTRUCTIONS TO VISIBILITY.

* THESE STATIONS ARE NOT UNDER NWS QUALITY CONTROL. THEY ALSO MAY NOT
  REPORT WEATHER SUCH AS PRECIPITATION OR FOG.

ILZ005-006-012>014-019>023-242000-
NORTHEAST ILLINOIS

CITY           SKY/WX    TMP DP  RH WIND       PRES   REMARKS
OHARE          CLOUDY    61  32  33 S23       29.84F
MIDWAY         CLOUDY    61  33  35 SE18G31   29.86F
AURORA         CLOUDY    62  38  40 SE24G33   29.82F
LANSING*       CLOUDY    61  31  32 SE16G23   29.88F
JOLIET*        PTSUNNY   64  33  32 SE18G24   29.84F
WAUKEGAN       PTSUNNY   53  33  46 SE14      29.85F
DUPAGE AIRPORT CLOUDY    60  35  39 SE23      29.82F
WHEELING       PTSUNNY   61  33  35 S17G28    29.85F
KANKAKEE*      PTSUNNY   64  37  36 SE20G25   29.87F
MORRIS*        PTSUNNY   67  27  22 SE22G29   29.81F
LEWIS AIRPORT* CLOUDY    63  32  31 S25G31    29.83F
NORTHERLY IS     N/A     53  40  61 SE15        N/A
$$

WIZ051-052-058>065-066-070>072-242000-
SOUTHEAST WISCONSIN

CITY           SKY/WX    TMP DP  RH WIND       PRES   REMARKS
MILWAUKEE      CLOUDY    50  33  52 SE20G30   29.87F
KENOSHA*       PTSUNNY   55  32  41 SE24G31   29.84F
RACINE*        PTSUNNY   50  34  54 SE18G28   29.88F
BURLINGTON     PTSUNNY   59  37  43 S16G26    29.81F
WAUKESHA       CLOUDY    52  34  50 SE22G35   29.84F
WEST BEND      CLOUDY    46  32  57 E13       29.88S
$$

INZ001>003-010>013-019-020-242000-
NORTHWEST INDIANA

CITY           SKY/WX    TMP DP  RH WIND       PRES   REMARKS
GARY*          CLOUDY    63  30  29 SE17G31   29.87F
MICHIGAN CITY* NOT AVBL
RENSSELAER*    NOT AVBL
VALPARAISO     CLOUDY    60  25  26 SE20G31   29.90F
$$

LMZ740>746-242000-
SOUTHERN LAKE MICHIGAN

STATION/POSITION TIME  SKY/WX   TEMP WIND        PRES    VSBY
                                AIR  DIR/SP/G
                 (UTC)          (F)  (DEG/KT/KT) (MB)    (MI)
HARRISON CRIB    1900            52  140/ 22/ 25   N/A
BURNHAM HARBOR   1900            54  130/ 12/ 17   N/A
CALUMET HARBOR   1900            59  140/ 16/ 24 1012.2F
BURNS HARBOR     NOT AVBL
MICHIGAN CITY    1900            58  110/ 17/ 24   N/A
$$

ABBREVIATIONS USED IN REMARKS
   TC - TEMPERATURE IN CELSIUS
  WCI - WIND CHILL INDEX
   HX - HEAT INDEX
  VSB - VISIBILITY
$$



USA.gov is the U.S. government's official web portal to all federal, state and local government web resources and services.